Preview of NWS' New Version of Forecast
This preview is not operational and should not be used for support decisions.

Regional Weather Roundup (RWR)

Issued by Bismarck, ND (BIS)

                            
000
ASUS43 KBIS 160810
RWRBIS

NWR BROADCAST TEXT
NATIONAL WEATHER SERVICE BISMARCK ND
300 AM CDT TUE OCT 16 2018

NOTE: "FAIR" INDICATES FEW OR NO CLOUDS BELOW 12,000 FEET WITH NO
SIGNIFICANT WEATHER AND/OR OBSTRUCTIONS TO VISIBILITY.

  
CITY           SKY/WX    TMP DP  RH WIND       PRES   REMARKS
WILLISTON      MOCLDY    47  33  58 NW10      30.07R                  
MINOT          PTCLDY    44  33  65 W15       29.99R                  
MINOT AFB      CLOUDY    40  33  75 W13       29.98R                  
BISMARCK       MOCLDY    45  34  65 W9        30.03R                  
DICKINSON      MOCLDY    43  33  68 W8        30.07R                  
GARRISON         N/A     44  34  67 W9        30.01R                  
HETTINGER ARPT MOCLDY    45  32  60 W10       30.10R                  
JAMESTOWN      PTCLDY    42  34  73 NW12      29.94R                  
CARRINGTON     FAIR      37  34  87 W13       29.96R                  
HAZEN          PTSUNNY   45  37  76 NW8       30.05R                  
LINTON           N/A    N/A N/A N/A W5        30.04R                  
MANDAN         CLOUDY   N/A N/A N/A W12       30.04R                  
OAKES            N/A     41  36  81 W9        29.96R                  
RUGBY          FAIR      39  30  70 NW12G18   29.94R                  
STANLEY          N/A     34  32  93 NW9       30.03R                  
TIOGA          FAIR      37  36  93 W8        30.06R                  
WATFORD CITY   FAIR      46  34  61 W8        30.07R                  
$$
  
CITY           SKY/WX    TMP DP  RH WIND       PRES   REMARKS
GRAND FORKS    FAIR      40  31  70 NW14      29.86R                  
GRAND FORKS AF FAIR      41  32  69 NW13      29.87R                  
DEVILS LAKE    FAIR      38  31  76 W13       29.91R                  
FARGO          FAIR      39  33  79 W13       29.88R                  
CANDO          FAIR      34 N/A N/A W9        29.93R                  
CAVALIER       FAIR      34  32  93 W6        29.87R                  
GRAFTON        FAIR      36  34  93 NW7       29.89R                  
GWINNER          N/A     43  34  70 W12       29.94R                  
LANGDON        FAIR      32  32 100 NW5       29.88R                  
ROLLA          FAIR      39  27  60 NW16      29.90R                  
WALHALLA         N/A     36  36 100 W6        29.87S                  
$$
  
CITY           SKY/WX    TMP DP  RH WIND       PRES   REMARKS
ABERDEEN       CLOUDY    45  32  60 W13       30.01R                  
MOBRIDGE       CLOUDY    48  36  63 NW8       30.03R                  
BUFFALO          N/A     45  31  58 W14       30.10R                  
RAPID CITY     CLEAR     39  29  67 W9        30.19R                  
GLASGOW        CLOUDY    50  35  56 NW6       30.13R                  
SIDNEY           N/A     46  34  62 NW8       30.10R                  
WOLF POINT     CLOUDY    48  36  63 W5        30.13R                  
GLENDIVE       CLOUDY    49  34  56 NW8       30.13R                  
MILES CITY     CLOUDY    47  32  56 NW8       30.18R                  
BAKER          CLOUDY    49  31  49 W13       30.14R                  
$$
  
CITY           SKY/WX    TMP DP  RH WIND       PRES   REMARKS
BILLINGS       MOCLDY    39  23  52 SW20      30.29R                  
GREAT FALLS    CLOUDY    46  28  49 SW13      30.29R                  
REGINA         CLEAR     30  28  93 W7        30.06R                  
ESTEVAN        CLEAR     30  28  93 W8        30.03R                  
$$